Regional Weather Roundup
Issued by NWS Midland/Odessa, TX

Skip options and go directly to product.
Home | Oldest Version | Next Version | Current Version | All | Text Only | Save Text | Print | Product List | Glossary On

Skip product version selection by date and time.   
672
ASUS44 KMAF 291210
RWRMAF
MIDLAND AREA WEATHER ROUNDUP
NATIONAL WEATHER SERVICE MIDLAND TX
700 AM CDT SUN MAY 29 2016

...IN SOUTHWEST TEXAS AND SOUTHEAST NEW MEXICO...

CITY           SKY/WX    TMP DP  RH WIND       PRES   REMARKS
ALPINE         CLEAR     65  60  83 S3        30.15R
ANDREWS        MOCLDY    64  64 100 SE14      30.10R
ARTESIA        CLOUDY    64  41  42 NW5       30.09R
BIG SPRING     PTCLDY    65  59  82 SE12G17   30.11R
CARLSBAD       CLOUDY    71  63  75 SE8       30.05R
DRYDEN           N/A     68  65  90 E18G25    30.03R
FORT STOCKTON  NOT AVBL
GUAD PASS      NOT AVBL
HOBBS          MOCLDY    63  63 100 E15G23    30.10R
MARFA          CLEAR     53  47  79 NW9       30.15R
MIDLAND AIRPK  CLOUDY    71  61  71 SE15G23   30.10R
MIDLAND INTL   CLOUDY    71  60  68 SE25      30.09R
ODESSA         CLOUDY    71  59  65 SE21G26   30.09R
PECOS          CLEAR     71  65  81 E14       30.00R
PRESIDIO       FAIR      74  60  61 N9        30.00R
SEMINOLE       MOCLDY    64  59  83 SE10G17   30.12R
SNYDER           N/A     62  58  86 E6        30.10R
WINK           NOT AVBL
$$
...OTHER STATIONS IN TEXAS...

CITY           SKY/WX    TMP DP  RH WIND       PRES   REMARKS
ABILENE        CLOUDY    65  61  87 E12       30.09R
AMARILLO       CLEAR     56  52  86 SE12      30.14R
AUSTIN         LGT RAIN  73  65  75 S16       30.00F
BROWNSVILLE    MOCLDY    79  77  94 E5        29.96R
CORPUS CHRISTI CLOUDY    80  75  84 E10       30.01R
DALLAS FTW     RAIN      67  62  84 N3        30.13R
DEL RIO        CLOUDY    70  65  84 E10       30.02R
EL PASO        MOCLDY    76   4   6 NW7       30.05S
HOUSTON INT    CLOUDY    71  71 100 CALM      30.07R
LUBBOCK        MOCLDY    64  56  75 SE13      30.13R
SAN ANGELO     CLOUDY    67  63  87 E13G22    30.09R
SAN ANTONIO    TSTM      69  65  86 NW13G24   30.12R
WACO           CLOUDY    73  71  93 N8        30.10R
WICHITA FALLS  NOT AVBL
$$
...OTHER LOCATIONS IN NEW MEXICO...

CITY           SKY/WX    TMP DP  RH WIND       PRES   REMARKS
ALAMAGORDO     CLEAR     55  16  21 E5        30.08R
ALBUQUERQUE    PTCLDY    56  25  30 N3        30.13R
CANNON AFB     PTCLDY    57  54  91 SE3       30.16R
CLOVIS         MOCLDY    59  50  72 S9        30.16R
HOLLOMAN AFB   CLEAR     62  15  15 SE6       30.07R
ROSWELL        CLOUDY    66  52  60 SE5       30.08R
RUIDOSO          N/A     48  10  21 N5        30.26R
SANTA FE       CLOUDY    49  22  34 N12       30.20R
TRUTH OR CONSE PTCLDY    60  11  14 W10       30.10R
TUCUMCARI      MOCLDY    59  50  72 CALM      30.14R
$$

USA.gov is the U.S. government's official web portal to all federal, state and local government web resources and services.